Location: Cahas Mountain Overlook
(37.0833°N, 80.1000°W)
Time: 23:47:09
(UTC-05:00)

Explorer 7 - Visible Passes

Search period start: 28 November 2023 00:00
Search period end: 08 December 2023 00:00
Orbit: 472 x 641 km, 50.3° (Epoch: 28 November)

Date Brightness Start Highest point End Pass type
(mag) Time Alt. Az. Time Alt. Az. Time Alt. Az.
28 Nov 7.3 18:24:09 10° WSW 18:27:40 44° NNW 18:29:23 25° NNE visible
29 Nov 7.8 18:21:02 10° W 18:24:22 32° NNW 18:26:17 20° NNE visible
30 Nov 8.2 18:18:00 10° W 18:21:05 25° NNW 18:23:06 16° NNE visible
01 Dec 8.5 18:15:03 10° WNW 18:17:48 20° NNW 18:19:52 13° NNE visible
02 Dec 8.7 18:12:08 10° WNW 18:14:31 16° NNW 18:16:34 11° NNE visible
03 Dec 8.9 18:09:15 10° NW 18:11:15 14° NNW 18:13:14 10° NNE visible
04 Dec 8.9 18:06:24 10° NW 18:07:58 12° N 18:09:33 10° NNE visible
05 Dec 8.9 18:03:31 10° NNW 18:04:42 11° N 18:05:52 10° NNE visible
06 Dec 8.9 18:00:32 10° NNW 18:01:24 11° N 18:02:15 10° N visible
07 Dec 8.9 17:57:16 10° N 17:58:04 11° N 17:58:52 10° NNE visible
